Home > Weather > Indonesia > Bekasi > Past weeks

Flag for Indonesia Weather past 2 weeks in Bekasi, West Java, Indonesia

81 °F


Feels Like: 86 °F
Forecast: 79 / 93 °F
Wind: 6 mph from Southwest

Location: Jakarta / Soekarno-Hatta

Current Time: Dec 2, 2015 at 7:30:22 AM

Latest Report: Dec 2, 2015 at 7:00 AM

Visibility: 3 mi

Pressure: 29.86 "Hg

Humidity: 84%

Dew point: 75 °F

Location of BekasiLocation

Historic Weather in Bekasi — Graph


Bekasi temperature yesterday

Maximum temperature yesterday: 91 °F (at 11:00 AM)
Minimum temperature yesterday: 77 °F (at 3:00 AM)
Average temperature yesterday: 84 °F

Past Weeks' High & Low Weather Summary

High95 °F (Nov 23, 11:30 AM)100% (Nov 23, 1:30 AM)29.95 "Hg (Nov 23, 1:30 AM)
Low43 °F (Nov 23, 1:30 AM)44% (Nov 25, 12:00 PM)29.68 "Hg (Nov 20, 3:00 PM)
Average83 °F75%29.80 "Hg
* Reported Nov 17 6:00 AM — Dec 2 6:00 AM, Bekasi, Weather by CustomWeather, © 2015

Note: Actual official high and low records may vary slightly from our data, if they occured in-between our weather recording intervals... More about our weather records


Bekasi weather history for previous 24 hours

Time TempWeatherWind HumidityBarometerVisibility
6:00 AM
Wed, Dec 2
79 °FFog.7 mph89%29.83 "Hg2 mi
5:00 AM79 °FFog.6 mph94%29.83 "Hg2 mi
4:30 AM79 °FFog.5 mph94%29.80 "Hg2 mi
4:00 AM79 °FFog.3 mph89%29.80 "Hg1 mi
3:30 AM77 °FFog.5 mph94%29.80 "Hg1 mi
3:00 AM79 °FFog.5 mph94%29.80 "Hg1 mi
2:30 AM79 °FFog.7 mph94%29.80 "Hg1 mi
2:00 AM79 °FFog.3 mph94%29.80 "Hg1 mi
1:30 AM79 °FFog.3 mph89%29.80 "Hg2 mi
1:00 AM81 °FFog.5 mph84%29.83 "Hg3 mi
12:30 AM81 °FFog.5 mph84%29.83 "Hg3 mi
12:00 AM81 °FFog.6 mph84%29.83 "Hg2 mi
11:30 PM
Tue, Dec 1
82 °FFog.6 mph79%29.86 "Hg3 mi
11:00 PM82 °FFog.6 mph79%29.86 "Hg3 mi
10:30 PM82 °FPassing clouds.5 mph74%29.86 "Hg3 mi
10:00 PM82 °FPassing clouds.5 mph79%29.86 "Hg2 mi
9:30 PM82 °FPassing clouds.6 mph79%29.86 "Hg3 mi
9:00 PM82 °FHaze.5 mph79%29.86 "Hg3 mi
8:30 PM82 °FPassing clouds.5 mph79%29.86 "Hg4 mi
8:00 PM82 °FPassing clouds.6 mph79%29.83 "Hg4 mi
7:30 PM82 °FPassing clouds.6 mph79%29.83 "Hg4 mi
7:00 PM82 °FPassing clouds.6 mph74%29.83 "Hg4 mi
6:30 PM84 °FPassing clouds.7 mph70%29.83 "Hg4 mi
6:00 PM84 °FPassing clouds.6 mph70%29.80 "Hg4 mi
5:30 PM84 °FPassing clouds.8 mph70%29.77 "Hg5 mi
5:00 PM86 °FPassing clouds.9 mph66%29.77 "HgN/A
4:30 PM90 °FPassing clouds.13 mph59%29.77 "Hg6 mi
4:00 PM90 °FPassing clouds.7 mph63%29.74 "HgN/A
3:00 PM91 °FPassing clouds.10 mph52%29.74 "Hg6 mi
2:30 PM91 °FScattered clouds.10 mph56%29.74 "HgN/A
2:00 PM91 °FThundershowers. Scattered clouds.9 mph56%29.74 "Hg6 mi
1:00 PM91 °FScattered clouds.9 mph59%29.77 "Hg6 mi
12:30 PM91 °FScattered clouds.10 mph59%29.80 "Hg6 mi
12:00 PM91 °FScattered clouds.7 mph59%29.80 "Hg6 mi
11:30 AM91 °FScattered clouds.8 mph56%29.83 "Hg6 mi
11:00 AM91 °FScattered clouds.8 mph59%29.83 "HgN/A
10:30 AM90 °FScattered clouds.7 mph63%29.83 "Hg6 mi
10:00 AM88 °FScattered clouds.5 mph66%29.86 "Hg5 mi
9:30 AM90 °FPassing clouds.6 mph63%29.86 "Hg5 mi
9:00 AM88 °FPassing clouds.2 mph66%29.83 "Hg6 mi
8:00 AM86 °FPassing clouds.3 mph70%29.83 "Hg4 mi
7:00 AM81 °FHaze.5 mph84%29.83 "Hg2 mi
Weather by CustomWeather, © 2015

See weather overviewHow to use our weather pages